DW4748 Weather Reports


time (UTC)temp
F
wind
direction
speed
knots
gust
knots
rain 1hr
in
rain 24hr
in
rain mn
in
humidity
%
barometer
mb
20260504214531 76 337 0.0 5.2 0.00 0.00 0.00 23 1010.0
20260504213038 76 271 0.9 5.2 0.00 0.00 0.00 24 1010.0
20260504211534 77 159 4.3 8.7 0.00 0.00 0.00 21 1010.1
20260504210028 77 166 0.9 10.4 0.00 0.00 0.00 21 1009.9
20260504204528 78 106 2.6 7.8 0.00 0.00 0.00 19 1010.0
20260504203024 78 173 1.7 6.1 0.00 0.00 0.00 20 1010.0
20260504201521 78 314 0.0 7.8 0.00 0.00 0.00 20 1010.3
20260504200020 78 321 0.9 5.2 0.00 0.00 0.00 20 1010.4
20260504194522 77 146 1.7 7.0 0.00 0.00 0.00 20 1010.6
20260504193018 77 155 0.9 6.1 0.00 0.00 0.00 21 1010.8
20260504191512 77 308 1.7 9.6 0.00 0.00 0.00 21 1011.1
20260504190012 76 88 1.7 3.5 0.00 0.00 0.00 22 1011.5
20260504184521 75 197 1.7 11.3 0.00 0.00 0.00 21 1011.8
20260504183004 76 180 1.7 6.1 0.00 0.00 0.00 21 1012.0
20260504181502 75 141 3.5 7.8 0.00 0.00 0.00 22 1012.3
20260504180100 76 186 0.9 5.2 0.00 0.00 0.00 22 1012.6
20260504174559 75 124 0.9 4.3 0.00 0.00 0.00 22 1012.6
20260504173054 74 136 0.9 6.1 0.00 0.00 0.00 23 1012.9
20260504171551 73 175 1.7 5.2 0.00 0.00 0.00 23 1013.1
20260504081514 47 155 0.0 0.0 0.00 0.00 0.00 57 1016.1
20260504060105 44 151 0.0 0.0 0.00 0.00 0.00 65 1016.5
20260504044543 41 151 0.0 0.0 0.00 0.00 0.00 67 1016.6
20260504043043 41 151 0.0 0.0 0.00 0.00 0.00 67 1016.6
20260504041537 41 151 0.0 0.0 0.00 0.00 0.00 66 1016.5
20260504040033 41 152 0.0 0.0 0.00 0.00 0.00 66 1016.4
20260504034533 41 152 0.0 0.0 0.00 0.00 0.00 66 1016.6
20260504033035 42 151 0.0 0.0 0.00 0.00 0.00 66 1016.6
20260504031530 42 151 0.0 0.0 0.00 0.00 0.00 64 1016.4
20260504030029 42 151 0.0 0.0 0.00 0.00 0.00 62 1016.3
20260504024538 43 151 0.0 0.0 0.00 0.00 0.00 61 1016.2
20260504023028 43 152 0.0 0.0 0.00 0.00 0.00 59 1016.1
20260504021528 44 151 0.0 0.0 0.00 0.00 0.00 58 1016.2
20260504020029 45 151 0.0 0.0 0.00 0.00 0.00 57 1016.0
20260504014526 46 151 0.0 0.0 0.00 0.00 0.00 54 1015.8
20260504013035 46 151 0.0 0.0 0.00 0.00 0.00 52 1015.6
20260504011526 48 151 0.0 0.0 0.00 0.00 0.00 51 1015.5
20260504010025 49 151 0.0 0.0 0.00 0.00 0.00 48 1015.6
20260504004525 50 151 0.0 0.0 0.00 0.00 0.00 43 1015.4
20260504003037 52 151 0.0 0.0 0.00 0.00 0.00 43 1015.3
20260504001523 54 151 0.0 0.0 0.00 0.00 0.00 34 1015.2
20260504000023 56 151 0.0 0.0 0.00 0.00 0.00 27 1015.2
20260503234522 58 151 0.0 0.0 0.00 0.00 0.00 26 1015.0
20260503233026 59 151 0.0 2.6 0.00 0.00 0.00 26 1014.9
20260503231520 59 141 0.0 1.7 0.00 0.00 0.00 21 1014.8
20260503230019 60 86 0.0 1.7 0.00 0.00 0.00 22 1014.7
20260503224526 61 98 0.0 2.6 0.00 0.00 0.00 19 1014.9
20260503223017 62 242 0.0 2.6 0.00 0.00 0.00 19 1015.0
20260503221515 63 294 0.0 5.2 0.00 0.00 0.00 19 1014.9
20260503220020 64 198 0.9 6.1 0.00 0.00 0.00 18 1014.9